Location: Hautmougey
(48.0276°N, 6.2327°E)
Time: 22:24:13
(UTC+00:00)

Daily predictions for brighter satellites

Satellite Brightness Start Highest point End
(mag) Time Altitude Azimuth Time Altitude Azimuth Time Altitude Azimuth
Okean O Rocket 3.4 16:13:45 10° E 16:15:42 13° ENE 16:17:37 10° NNE
USA 267 3.5 16:14:41 10° ENE 16:21:13 65° SE 16:27:41 10° SW
H-2A R/B 2.9 16:20:03 10° ESE 16:24:20 27° ENE 16:28:32 10° N
SJ 16-02 3.5 16:21:03 10° NW 16:24:57 32° WSW 16:28:50 10° SSW
Cosmos 1763 Rocket 3.6 16:22:30 10° S 16:27:25 54° ESE 16:32:24 10° NNE
CZ-4B R/B 2.8 16:24:30 10° SSE 16:28:32 77° ENE 16:32:23 10° N
USA 276 3.6 16:25:49 10° W 16:28:45 37° SSW 16:31:39 10° SE
USA 305 3.7 16:24:55 10° WNW 16:28:52 37° N 16:32:46 10° ENE
Cosmos 1656 4.1 16:25:11 10° NNW 16:30:42 70° WSW 16:36:17 10° SSE
Cosmos 1933 3.9 16:29:52 10° SSE 16:33:36 37° E 16:37:21 10° NNE
Cosmos 841 Rocket 4.4 16:29:37 10° SSE 16:33:59 29° E 16:38:22 10° NE
PSLV R/B 4.4 16:31:32 10° SE 16:34:47 30° ENE 16:38:05 10° N
Cosmos 1464 Rocket 4.3 16:29:14 10° SSW 16:35:36 79° W 16:42:02 10° N
USA 229 DEB 4.0 16:28:17 10° NW 16:35:37 88° NE 16:43:26 10° SE
USA 229 4.0 16:28:22 10° NW 16:35:43 88° NE 16:43:32 10° SE
Cosmos 1937 Rocket 3.6 16:31:49 10° NNW 16:37:05 56° ENE 16:42:17 10° SE
Spot 1 4.4 16:35:12 10° NNE 16:39:55 89° ESE 16:44:52 10° SSW
Cosmos 1500 Rocket 3.5 16:35:28 10° N 16:39:56 80° ENE 16:44:20 10° SSE
Cosmos 1666 4.1 16:37:31 10° NNE 16:40:07 18° ENE 16:42:41 10° ESE
Nadezhda 4 Rocket 4.2 16:35:24 10° N 16:41:44 84° W 16:48:05 10° S
SeaSat 1 4.3 16:38:11 10° N 16:42:08 25° NW 16:46:05 10° W
SL-24 R/B - RUBIN 2 3.8 16:38:04 10° NNW 16:42:32 46° NE 16:46:43 10° ESE
Cosmos 2322 Rocket 3.8 16:40:12 10° N 16:43:38 16° NE 16:45:58 13° ENE
ATLAS 2AS CENTAUR R/B 4.2 16:37:21 10° WNW 16:43:42 27° NNW 16:49:47 10° NE
Cosmos 990 Rocket 4.2 16:38:49 10° NNW 16:44:01 75° WSW 16:49:10 10° SSE
FengYun 1-2 T 4.3 16:40:36 10° SSE 16:46:12 87° ENE 16:51:46 10° NNW
Cosmos 1697 Rocket 2.6 16:40:45 10° NNW 16:46:25 83° ENE 16:52:02 10° SSE
Cosmos 372 Rocket 4.3 16:43:14 10° NNW 16:48:16 46° ENE 16:53:18 10° SE
NOAA 6 4.0 16:44:27 10° SSE 16:49:34 77° ENE 16:54:43 10° NNW
Sich 1 3.2 16:45:29 10° N 16:49:39 47° ENE 16:53:49 10° SSE
Cosmos 1980 Rocket 2.3 16:45:09 10° NNW 16:50:41 51° NE 16:56:10 10° SE
Cosmos 1805 Rocket 3.5 16:47:21 10° N 16:51:41 63° ENE 16:55:58 10° SSE
Cosmos 2221 3.5 16:47:45 10° SSW 16:51:53 48° WNW 16:56:04 10° N
Cosmos 2369 3.7 16:46:55 10° NNW 16:52:39 65° ENE 16:58:20 10° SE
USA 234 3.3 16:48:57 10° SE 16:55:31 86° SW 17:02:06 10° NW
CZ-4C R/B 3.0 16:50:11 10° NW 16:57:01 55° NE 17:05:06 10° ESE
Cosmos 1092 Rocket 4.0 16:51:17 10° N 16:57:41 79° E 17:04:00 10° SSE
Cosmos 1428 Rocket 4.4 16:54:16 10° N 17:00:24 73° E 17:06:33 10° SSE
Cosmos 1812 3.6 16:57:20 10° SSE 17:00:38 28° E 17:02:43 18° NE
USA 306 3.7 16:57:12 10° WNW 17:01:09 36° N 17:03:36 19° NE
SL-16 R/B 3.3 16:57:19 10° N 17:01:49 23° NE 17:04:15 18° ENE
ISS -3.8 16:59:13 10° WNW 17:02:37 79° NNE 17:04:59 18° ESE
Meteor 1-25 Rocket 4.3 16:57:47 10° NNW 17:03:23 82° W 17:08:59 10° S
NOSS 2-2 (D) 4.2 16:59:42 10° NW 17:04:45 74° NE 17:11:51 10° SE
MOS 1-B Rocket 4.3 16:59:07 10° NNE 17:04:48 47° E 17:11:11 10° S
deb Chang Zheng 4 4.1 17:01:07 10° SE 17:05:03 36° ENE 17:09:02 10° N
NOSS 2-2 (E) 4.4 16:59:53 10° NW 17:05:07 86° NE 17:12:30 10° SE
SMAP 3.3 17:00:56 10° S 17:05:36 76° WSW 17:10:17 10° NNW
Cosmos 2082 Rocket 2.5 17:01:02 10° S 17:06:24 45° ESE 17:10:43 16° NE
Cosmos 1939 Rocket 3.4 17:02:46 10° S 17:06:51 64° W 17:10:55 10° NNW
CORIOLIS 4.2 17:03:08 10° SSE 17:08:33 84° WSW 17:14:01 10° NNW
Cosmos 44 Rocket 3.9 17:07:25 10° NNW 17:11:58 35° NE 17:14:23 22° E
Cosmos 2333 Rocket 4.1 17:10:02 10° N 17:12:01 12° NNE 17:12:25 12° NNE
CZ-4B DEB 4.3 17:09:23 10° SSE 17:14:55 86° WSW 17:20:27 10° NNW
Cosmos 2278 3.7 17:11:04 10° NNW 17:16:43 58° ENE 17:22:19 10° SE
Cosmos 1602 4.1 17:13:02 10° NNW 17:16:52 66° W 17:20:42 10° S
USA 307 3.7 17:16:00 10° WNW 17:20:00 36° N 17:21:38 26° NE
Cosmos 540 Rocket 3.4 17:16:16 10° SSW 17:21:22 90° E 17:26:07 12° NNE
ARGOS 3.2 17:19:50 10° SE 17:25:05 54° ENE 17:30:21 10° N
COSMO-SKYMED 1 2.8 17:23:24 22° NE 17:25:53 44° E 17:30:02 10° S
Cosmos 1570 Rocket 4.4 17:21:12 10° S 17:26:06 42° ESE 17:28:35 26° NE
Cosmos 2279 Rocket 4.0 17:20:12 10° S 17:26:15 57° E 17:32:19 10° NNE
COSMOS 2406 3.3 17:21:21 10° SSW 17:27:06 82° WNW 17:32:10 14° NNE
Cosmos 1833 Rocket 3.1 17:22:53 10° SW 17:28:28 64° WNW 17:33:42 12° NNE
Cosmos 2266 Rocket 4.4 17:23:35 10° N 17:29:32 39° ENE 17:35:30 10° SE
Cosmos 1782 2.9 17:25:41 10° SSW 17:29:40 79° W 17:33:41 10° N
Cosmos 1814 Rocket 4.1 17:25:51 10° S 17:30:55 53° ESE 17:33:44 25° NE
ATLAS 5 CENTAUR R/B 2.4 17:24:41 10° NW 17:32:16 44° NNE 17:33:08 37° ENE
Cosmos 921 Rocket 4.4 17:30:45 10° SSE 17:32:43 20° SE 17:32:43 20° SE
Cosmos 1633 Rocket 2.9 17:30:30 10° N 17:34:52 64° ENE 17:39:13 10° SSE
ATLAS CENTAUR R/B 4.0 17:33:56 10° NW 17:35:46 12° NNW 17:37:37 10° N
Cosmos 1818 3.7 17:30:44 10° NNW 17:36:07 53° NE 17:38:50 28° ESE
Cosmos 2219 Rocket 4.2 17:34:50 10° N 17:36:28 12° NNE 17:36:28 12° NNE
YAOGAN 1 4.0 17:39:35 22° NNE 17:39:35 22° NNE 17:41:28 10° N
GEOS 3 Rocket 3.9 17:37:58 32° E 17:40:00 47° NE 17:44:58 10° NNW
CZ-2D R/B 3.9 17:36:35 10° S 17:40:20 55° W 17:44:07 10° NNW
ERBS 4.3 17:38:52 10° NW 17:41:00 17° N 17:41:00 17° N
Meteor 2-6 Rocket 4.3 17:35:34 10° S 17:41:09 54° E 17:45:15 18° NNE
USA 308 3.6 17:38:37 10° WNW 17:42:38 38° N 17:43:13 36° NNE
SJ-11-01 4.2 17:38:18 10° SSE 17:43:02 75° ENE 17:47:47 10° N
Cosmos 1634 Rocket 4.2 17:36:56 10° SSW 17:43:15 73° W 17:49:37 10° N
COSMOS 2455 2.8 17:38:23 10° SSW 17:44:25 88° NW 17:48:14 24° NNE
CZ-2C R/B 2.4 17:40:35 13° NNE 17:45:19 71° ESE 17:50:28 10° S
Cosmos 1500 4.3 17:42:45 10° NNW 17:46:21 45° W 17:49:54 10° SSW
CZ-4B R/B 3.2 17:41:51 10° SSE 17:47:16 84° WSW 17:52:40 10° NNW
Cosmos 1151 Rocket 2.9 17:44:21 10° S 17:48:40 87° ESE 17:51:27 22° N
SKYMED 3 4.4 17:47:47 28° NNE 17:50:04 79° ESE 17:54:24 10° S
Lacrosse 5 rocket 1.4 17:46:47 10° NW 17:50:36 54° NNE 17:50:36 54° NNE
Okean O Rocket 1.5 17:46:53 10° SSE 17:51:20 88° ENE 17:55:50 10° NNW
CZ-4 R/B 3.9 17:59:39 10° N 17:59:39 10° N 17:59:43 10° N
Meteor 2-15 4.4 17:52:33 10° S 17:58:34 62° E 18:03:29 16° NNE
Cosmos 2208 Rocket 4.0 17:54:44 10° S 18:00:04 67° ESE 18:01:39 45° NE
Cosmos 1666 Rocket 4.2 17:56:17 10° NNW 18:00:39 58° W 18:04:59 10° S
CZ-4 R/B 4.5 17:56:34 10° S 18:00:41 78° WSW 18:04:51 10° NNW
Meteor 1-11 Rocket 3.7 17:57:19 10° N 18:02:50 56° ENE 18:05:45 28° SE
Meteor 1-10 Rocket 4.2 17:57:21 10° S 18:03:01 60° E 18:04:52 40° NE
H-2A R/B 3.0 17:58:36 10° S 18:03:34 46° W 18:08:26 10° NNW
Cosmos 1470 Rocket 3.4 17:59:29 10° N 18:03:56 76° ENE 18:08:25 10° SSE
USA 267 3.6 18:01:03 31° NE 18:04:11 57° NNW 18:10:32 10° W
Cosmos 2150 Rocket 3.9 17:59:04 10° NNW 18:04:13 61° ENE 18:04:48 57° E
Cosmos 1655 Rocket 3.9 17:59:37 10° N 18:06:03 73° E 18:12:24 10° SSE
Cosmos 1328 Rocket 3.5 18:01:46 10° S 18:06:12 87° W 18:07:30 46° N
Landsat 5 3.3 18:08:41 78° S 18:08:41 78° S 18:12:25 10° SSW
Cosmos 2360 Rocket 3.3 18:03:44 10° NNW 18:07:10 27° NNE 18:07:10 27° NNE
USA 305 3.6 18:05:17 10° WNW 18:08:46 42° N 18:08:46 42° N
SKYMED 2 4.0 18:12:00 30° N 18:13:59 60° WNW 18:18:16 10° SSW
Cosmos 841 Rocket 4.5 18:10:46 10° SW 18:15:40 43° WNW 18:18:54 20° N
Cosmos 1666 4.1 18:12:20 10° NNW 18:15:48 37° W 18:19:13 10° SSW
Feng Yun 1-1 Rocket 4.3 18:10:46 10° SSE 18:16:43 89° W 18:22:37 10° NNW
Meteor 2-8 Rocket 4.5 18:12:26 10° SSW 18:18:35 81° W 18:24:49 10° N
ATLAS CENTAUR R/B 2.9 18:12:55 10° WSW 18:20:10 45° NNW 18:20:43 43° N
Cosmos 1125 Rocket 3.3 18:17:04 10° NNW 18:22:14 79° NE 18:22:14 79° NE
Cosmos 2322 Rocket 2.5 18:23:14 10° NNW 18:27:49 52° NNE 18:27:49 52° NNE
Cosmos 1980 Rocket 4.0 18:29:36 10° NW 18:34:26 29° WSW 18:39:12 10° SSW
SL-08 RB Rocket 4.5 18:30:10 10° S 18:34:42 52° W 18:39:13 10° NNW
ATLAS 2AS CENTAUR R/B 4.0 18:31:03 10° NW 18:37:11 26° NNE 18:37:27 26° NNE
ISS -1.0 18:36:24 10° W 18:37:59 19° WSW 18:37:59 19° WSW
CZ-4C R/B 3.8 18:38:45 10° NW 18:45:47 50° WSW 18:53:52 10° SSE
SL-16 R/B 2.3 18:40:53 10° NNW 18:46:12 74° WNW 18:46:12 74° WNW
Cosmos 2082 Rocket 3.5 18:45:27 10° WSW 18:50:38 35° NW 18:52:35 28° NNW
Cosmos 44 Rocket 4.3 18:48:57 10° NW 18:53:10 43° WSW 18:53:10 43° WSW
Cosmos 2333 Rocket 4.1 18:52:39 10° NNW 18:54:27 19° N 18:54:27 19° N
Cosmos 2219 Rocket 4.5 19:17:19 10° NNW 19:18:11 14° NNW 19:18:11 14° NNW
USA 267 4.5 19:48:24 34° NW 19:48:24 34° NW 19:52:34 10° WNW
Cosmos 2360 Rocket 4.5 19:47:33 10° NW 19:48:57 18° NW 19:48:57 18° NW
